THOR ABLESTAR DEB, 121

Orbit data source: Space-Track

THOR ABLESTAR DEB, 121 is space debris in LEO originally from a launch on Thu, 29 Jun 1961 UTC launched from the Air Force Eastern Test Range (AFETR). Debris objects in space refer to the collection of defunct objects orbiting the Earth. Examples of debris include non-operational satellites, rocket bodies, and fragments generated from explosions, collisions, or faulty payload assembly.

Loading next visibility...
Identifier
121, 1961-015F
Orbit
LEO
Country
Flag of USUS
Related business
Manufacturer
Unknown
Mission
Spacecraft
Bus & Motor
Unknown
Mass
Unknown
Launch date (UTC)
1961-06-29 (65 years ago)
Launch vehicle
Unknown
Launch site
Air Force Eastern Test Range (AFETR)
Object type
Payload
Rocket body
Debris
Shape & HBR
Unknown shape, 0.4 m
Radar Cross Section
Medium (>0.1 m² and <1 m²)

Expand to show TLE details & history
Last TLE update: 8 hours ago

TLE from 8 hours ago
0 THOR ABLESTAR DEB
1 00121U 61015F   26174.88286322 -.00000013  00000-0  43076-4 0  9995
2 00121  66.7481  24.8738 0093160 356.1575   3.8782 14.00233007327304
Epoch: 2026-06-23T21:11Z
TLE epoch observation values (Epoch: 2026-06-23T21:11:19.382Z)
Latitude
0.00006°
Longitude
154.99502°
Altitude
827.483 km
Speed
7.474 km/s
True Right ascension
01h 39m 29s
True Declination
0° 00' 00"
Sunlit
Object was in daylight at epoch
Visualization orbit readout
Latitude
Unknown
Longitude
Unknown
Altitude
Unknown
Speed
Unknown
Apparent Right ascension
Unknown
Apparent Declination
Unknown
Sunlit
N/A
Visualization observer readout
Local Sidereal Time
16:36:46
Azimuth
Unknown
Elevation
Unknown
Doppler factor
Unknown
Orbital elements
Apogee altitude
959.103 km
Perigee altitude
823.658 km
Semi-major axis
7,269.517 km
Eccentricity
0.00932
Inclination
66.7481°
RAAN
24.8738°
Arg. of periapsis
356.1575°
True anomaly
3.95125°
Mean anomaly
3.8782°
Eccentric anomaly
3.91464°
Mean motion
3.50175 °/min
Orbital period
102.81 mins
BSTAR
0.000043076

Documentation

Showing up to 5 results
|